DW7731 Weather Reports


Display with metric or nautical units.
time (UTC)temp
F
wind
direction
speed
MPH
gust
MPH
rain 1hr
in
rain 24hr
in
rain mn
in
humidity
%
barometer
mb
20260504202104 75 182 0.0 0.0 0.00 0.00 0.00 30 1010.2
20260504201605 76 182 0.0 0.0 0.00 0.00 0.00 31 1010.2
20260504195104 74 182 0.0 0.0 0.00 0.00 0.00 31 1010.2
20260504194604 74 182 0.0 0.0 0.00 0.00 0.00 31 1010.4
20260504193604 75 182 0.0 0.0 0.00 0.00 0.00 32 1010.5
20260504193105 75 182 0.0 0.0 0.00 0.00 0.00 31 1010.5
20260504192105 74 182 0.0 0.0 0.00 0.00 0.00 34 1010.5
20260504191604 74 182 0.0 0.0 0.00 0.00 0.00 32 1010.5
20260504191105 73 182 0.0 0.0 0.00 0.00 0.00 34 1010.5
20260504190604 74 182 0.0 0.0 0.00 0.00 0.00 32 1010.5
20260504190105 75 182 0.0 0.0 0.00 0.00 0.00 31 1010.5
20260504185605 75 182 0.0 0.0 0.00 0.00 0.00 34 1010.5
20260504185104 74 182 0.0 0.0 0.00 0.00 0.00 34 1010.5
20260504184605 74 182 0.0 0.0 0.00 0.00 0.00 32 1010.8
20260504183604 73 182 0.0 0.0 0.00 0.00 0.00 35 1010.8
20260504183105 73 182 0.0 0.0 0.00 0.00 0.00 33 1010.8
20260504182605 73 182 0.0 0.0 0.00 0.00 0.00 34 1010.8
20260504181604 73 182 0.0 0.0 0.00 0.00 0.00 32 1011.2
20260504181104 73 182 0.0 0.0 0.00 0.00 0.00 32 1011.2
20260504180605 73 182 0.0 0.0 0.00 0.00 0.00 31 1011.2
20260504180104 73 182 0.0 0.0 0.00 0.00 0.00 33 1011.2
20260504175604 73 182 0.0 0.0 0.00 0.00 0.00 33 1011.2
20260504175104 73 182 0.0 0.0 0.00 0.00 0.00 33 1011.2
20260504174605 72 182 0.0 0.0 0.00 0.00 0.00 33 1011.2
20260504174104 72 182 0.0 0.0 0.00 0.00 0.00 34 1011.2
20260504173605 72 182 0.0 0.0 0.00 0.00 0.00 32 1011.5
20260504172105 71 182 0.0 0.0 0.00 0.00 0.00 32 1011.5
20260504171604 70 182 0.0 0.0 0.00 0.00 0.00 35 1011.5
20260504171105 70 182 0.0 0.0 0.00 0.00 0.00 33 1011.5
20260504170604 70 182 0.0 0.0 0.00 0.00 0.00 33 1011.5
20260504170105 70 182 0.0 0.0 0.00 0.00 0.00 31 1011.9
20260504160104 69 182 0.0 0.0 0.00 0.00 0.00 34 1012.2
20260504151104 67 182 0.0 0.0 0.00 0.00 0.00 38 1012.9
20260504150605 67 182 0.0 0.0 0.00 0.00 0.00 39 1012.9
20260504150104 67 182 0.0 0.0 0.00 0.00 0.00 39 1012.9
20260504141104 65 182 0.0 0.0 0.00 0.00 0.00 42 1013.2
20260504140605 64 182 0.0 0.0 0.00 0.00 0.00 41 1013.2
20260504140104 64 182 0.0 0.0 0.00 0.00 0.00 41 1013.2
20260504130605 61 182 0.0 0.0 0.00 0.00 0.00 47 1013.2
20260504130104 60 182 0.0 0.0 0.00 0.00 0.00 48 1013.2
20260504120104 53 182 0.0 0.0 0.00 0.00 0.00 58 1013.6
20260504110605 43 182 0.0 0.0 0.00 0.00 0.00 74 1013.5
20260504110104 42 182 0.0 0.0 0.00 0.00 0.00 73 1013.9
20260504100105 37 182 0.0 0.0 0.00 0.00 0.00 79 1013.2
20260504090104 39 182 0.0 0.0 0.00 0.00 0.00 74 1013.2
20260504081605 40 182 0.0 0.0 0.00 0.00 0.00 71 1013.2
20260504081104 40 182 0.0 0.0 0.00 0.00 0.00 72 1013.2
20260504080604 40 182 0.0 0.0 0.00 0.00 0.00 72 1013.2
20260504080104 40 182 0.0 0.0 0.00 0.00 0.00 72 1013.2
20260504070105 40 182 0.0 0.0 0.00 0.00 0.00 77 1013.2
20260504060105 38 182 0.0 0.0 0.00 0.00 0.00 77 1013.2
20260504050604 37 182 0.0 0.0 0.00 0.00 0.00 72 1013.2
20260504045604 37 182 0.0 0.0 0.00 0.00 0.00 73 1013.2
20260504045104 37 182 0.0 0.0 0.00 0.00 0.00 75 1013.2
20260504044605 37 182 0.0 0.0 0.00 0.00 0.00 75 1013.2
20260504043104 37 182 0.0 0.0 0.00 0.00 0.00 72 1013.2
20260504042604 37 182 0.0 0.0 0.00 0.00 0.00 71 1013.2
20260504042104 37 182 0.0 0.0 0.00 0.00 0.00 71 1013.2
20260504041604 37 182 0.0 0.0 0.00 0.00 0.00 71 1013.2
20260504041104 37 182 0.0 0.0 0.00 0.00 0.00 70 1013.2
20260504040604 38 182 0.0 0.0 0.00 0.00 0.00 69 1013.2
20260504040104 38 182 0.0 0.0 0.00 0.00 0.00 69 1013.2
20260504035604 38 182 0.0 0.0 0.00 0.00 0.00 69 1012.9
20260504035104 38 182 0.0 0.0 0.00 0.00 0.00 69 1012.9
20260504034604 38 182 0.0 0.0 0.00 0.00 0.00 69 1012.9
20260504034104 38 182 0.0 0.0 0.00 0.00 0.00 68 1012.9
20260504033104 38 182 0.0 0.0 0.00 0.00 0.00 70 1012.9
20260504032605 38 182 0.0 0.0 0.00 0.00 0.00 70 1012.9
20260504032104 38 182 0.0 0.0 0.00 0.00 0.00 71 1012.9
20260504031604 38 182 0.0 0.0 0.00 0.00 0.00 71 1012.9
20260504030604 38 182 0.0 0.0 0.00 0.00 0.00 73 1012.9
20260504025604 38 182 0.0 0.0 0.00 0.00 0.00 73 1012.9
20260504025105 38 182 0.0 0.0 0.00 0.00 0.00 72 1012.9
20260504024604 38 182 0.0 0.0 0.00 0.00 0.00 70 1012.9
20260504024104 38 182 0.0 0.0 0.00 0.00 0.00 72 1012.9
20260504023604 38 182 0.0 0.0 0.00 0.00 0.00 73 1012.5
20260504022604 38 182 0.0 0.0 0.00 0.00 0.00 74 1012.5
20260504022104 38 182 0.0 0.0 0.00 0.00 0.00 73 1012.5
20260504021604 38 182 0.0 0.0 0.00 0.00 0.00 72 1012.5
20260504021104 38 182 0.0 0.0 0.00 0.00 0.00 72 1012.5
20260504020604 38 182 0.0 0.0 0.00 0.00 0.00 71 1012.5
20260504020104 38 182 0.0 0.0 0.00 0.00 0.00 70 1012.5
20260504015604 38 182 0.0 0.0 0.00 0.00 0.00 68 1012.5
20260504015104 39 182 0.0 0.0 0.00 0.00 0.00 67 1012.2
20260504014604 39 182 0.0 0.0 0.00 0.00 0.00 65 1012.2
20260504014104 39 182 0.0 0.0 0.00 0.00 0.00 64 1012.2
20260504013604 39 182 0.0 0.0 0.00 0.00 0.00 63 1012.2
20260504013105 39 182 0.0 0.0 0.00 0.00 0.00 62 1012.2
20260504012604 39 182 0.0 0.0 0.00 0.00 0.00 61 1012.2
20260504012104 40 182 0.0 0.0 0.00 0.00 0.00 60 1012.2
20260504011604 40 182 0.0 0.0 0.00 0.00 0.00 60 1012.2
20260504005104 42 182 0.0 0.0 0.00 0.00 0.00 58 1011.9
20260504004604 42 182 0.0 0.0 0.00 0.00 0.00 56 1011.5
20260504003604 42 182 0.0 0.0 0.00 0.00 0.00 57 1011.5
20260504003104 43 182 0.0 0.0 0.00 0.00 0.00 54 1011.2
20260504002605 43 182 0.0 0.0 0.00 0.00 0.00 54 1011.2
20260504001604 44 182 0.0 0.0 0.00 0.00 0.00 55 1011.2
20260504001104 44 182 0.0 0.0 0.00 0.00 0.00 52 1011.2
20260504000604 44 182 0.0 0.0 0.00 0.00 0.00 53 1011.2
20260504000104 45 182 0.0 0.0 0.00 0.00 0.00 53 1010.8
20260503235104 45 182 0.0 0.0 0.00 0.00 0.00 53 1011.2
20260503234604 46 182 0.0 0.0 0.00 0.00 0.00 51 1010.8
20260503234104 46 182 0.0 0.0 0.00 0.00 0.00 51 1010.8
20260503233604 46 182 0.0 0.0 0.00 0.00 0.00 52 1010.8
20260503233104 46 182 0.0 0.0 0.00 0.00 0.00 51 1010.8
20260503232604 46 182 0.0 0.0 0.00 0.00 0.00 52 1010.8
20260503232104 47 182 0.0 0.0 0.00 0.00 0.00 52 1010.5
20260503231604 47 182 0.0 0.0 0.00 0.00 0.00 51 1010.5
20260503230604 47 182 0.0 0.0 0.00 0.00 0.00 50 1010.5
20260503230104 47 182 0.0 0.0 0.00 0.00 0.00 49 1010.5
20260503225604 48 182 0.0 0.0 0.00 0.00 0.00 48 1010.5
20260503225104 48 182 0.0 0.0 0.00 0.00 0.00 49 1010.5
20260503224605 48 182 0.0 0.0 0.00 0.00 0.00 49 1010.5
20260503223604 48 182 0.0 0.0 0.00 0.00 0.00 48 1010.5
20260503223104 48 182 0.0 0.0 0.00 0.00 0.00 47 1010.5
20260503222604 48 182 0.0 0.0 0.00 0.00 0.00 48 1010.5
20260503222104 49 182 0.0 0.0 0.00 0.00 0.00 46 1010.5
20260503221104 49 182 0.0 0.0 0.00 0.00 0.00 48 1010.5
20260503220604 49 182 0.0 0.0 0.00 0.00 0.00 45 1010.5
20260503220104 50 182 0.0 0.0 0.00 0.00 0.00 47 1010.5
20260503215604 51 182 0.0 0.0 0.00 0.00 0.00 45 1010.5
20260503215104 51 182 0.0 0.0 0.00 0.00 0.00 44 1010.2
20260503214604 51 182 0.0 0.0 0.00 0.00 0.00 48 1010.2
20260503214104 51 182 0.0 0.0 0.00 0.00 0.00 46 1010.2
20260503213604 51 182 0.0 0.0 0.00 0.00 0.00 46 1010.2
20260503213104 51 182 0.0 0.0 0.00 0.00 0.00 44 1010.2
20260503212604 51 182 0.0 0.0 0.00 0.00 0.00 45 1010.2
20260503212104 51 182 0.0 0.0 0.00 0.00 0.00 44 1010.2
20260503211604 52 182 0.0 0.0 0.00 0.00 0.00 45 1010.2
20260503211104 53 182 0.0 0.0 0.00 0.00 0.00 43 1010.2
20260503210604 52 182 0.0 0.0 0.00 0.00 0.00 46 1009.8
20260503210105 51 182 0.0 0.0 0.00 0.00 0.00 47 1009.8
20260503204105 52 182 0.0 0.0 0.00 0.00 0.00 44 1009.8
20260503203604 53 182 0.0 0.0 0.00 0.00 0.00 48 1009.8
20260503203103 53 182 0.0 0.0 0.00 0.00 0.00 44 1009.8
20260503202604 53 182 0.0 0.0 0.00 0.00 0.00 45 1009.8